Location: Killam
(52.7910°N, 111.8608°W)
Time: 10:16:53
(UTC+00:00)

SR - Pass Details

Date: 16 February 2026
Orbit: 573 x 848 km, 66.7° (Epoch: 7 March)

Event Time Altitude Azimuth Distance (km) Brightness Sun altitude
Exits shadow 12:59:30 14° 215° (SW) 1,653 ? -16.0°
Maximum altitude 13:03:08 85° 127° (SE) 611 ? -15.5°
Drops below altitude 10° 13:07:39 10° 41° (NE) 2,018 ? -14.8°
Sets 13:10:01 0° 41° (NE) 2,972 ? -14.4°
